(176059) = 2002 CZ47 = 2000 US18

Discovered at Socorro on 2000-10-25 by LINEAR.

Orbit

Orbit type: Main Belt

Note: WebGL enabled browser required.

epoch2024-03-31.0
epoch JD2460400.5
perihelion date2022-02-22.78984
perihelion JD2459633.28984
argument of perihelion (°)33.28396
ascending node (°)328.00849
inclination (°)8.37643
eccentricity0.0809797
perihelion distance (AU)2.8538384
Tisserand w.r.t. Jupiter3.2
ΔV w.r.t. Earth (km/sec)10.8
semimajor axis (AU)3.1053050
mean anomaly (°)138.18529
mean daily motion (°/day)0.18011400
aphelion distance (AU)3.357
period (years)5.47
P-vector [x]0.99664402
P-vector [y]-0.01566160
P-vector [z]0.08034553
Q-vector [x]-0.02728013
Q-vector [y]0.86186826
Q-vector [z]0.50639797
absolute magnitude15.29
phase slope0.15
uncertainty0
referenceMPEC 2024-E190
observations used599
oppositions16
arc length (days)8537
first opposition used2000
last opposition used2024
residual rms (arc-secs)0.71
perturbers coarse indicatorM-v
perturbers precise indicator003Ek
first observation date used2000-10-25.0
last observation date used2024-03-10.0
computer nameMPCLINUX
JD of orbit computation2456760.858639
perihelion JD uncertainty (days)2.4042E-04
argument of perihelion uncertainty (°)5.2592E-05
ascending node uncertainty (°)3.6442E-05
inclination uncertainty (°)7.8863E-06
eccentricity uncertainty 8.3051E-08
perihelion distance uncertainty (AU)2.7850E-07
Minimum Orbit Intersection Distances (in AU)
for orbit epoch: 2460400.5, reference: E2024-EJ0
Mercury2.48492
Venus2.13574
Earth1.85395
Mars1.47248
Jupiter2.05394
Saturn5.90004
Uranus15.0995
Neptune26.9474

Observations

611 total observations over interval: 2000 10 25.36290 – 2024 03 10.294518
These data are available for download (format description).

Date (UT) J2000 RA J2000 Dec Magn Location Ref
2000 10 25.36290 02 55 43.38 +29 22 11.0 18.6   704 – Lincoln Laboratory ETS, New Mexico MPS 21554
2000 10 25.37707 02 55 42.63 +29 22 10.3 18.7   704 – Lincoln Laboratory ETS, New Mexico MPS 21554
2000 10 25.39161 02 55 41.85 +29 22 09.2 19.1   704 – Lincoln Laboratory ETS, New Mexico MPS 21554
2000 10 25.40553 02 55 41.17 +29 22 08.4 19.2   704 – Lincoln Laboratory ETS, New Mexico MPS 21554
2000 10 25.41970 02 55 40.39 +29 22 06.1 18.8   704 – Lincoln Laboratory ETS, New Mexico MPS 21554
2000 10 30.30703 02 51 24.14 +29 14 02.7 19.0   704 – Lincoln Laboratory ETS, New Mexico MPS 21554
2000 10 30.32153 02 51 23.28 +29 14 01.5 19.5   704 – Lincoln Laboratory ETS, New Mexico MPS 21554
2000 10 30.33583 02 51 22.59 +29 14 00.5 19.6   704 – Lincoln Laboratory ETS, New Mexico MPS 21554
2000 10 30.34980 02 51 21.73 +29 13 57.4 19.3   704 – Lincoln Laboratory ETS, New Mexico MPS 21554
2000 10 30.36495 02 51 20.88 +29 13 55.6 19.5   704 – Lincoln Laboratory ETS, New Mexico MPS 21554
2000 11 19.24626 02 33 43.08 +28 06 14.0 19.3   704 – Lincoln Laboratory ETS, New Mexico MPS 23862
2000 11 19.26186 02 33 42.13 +28 06 11.7 19.4   704 – Lincoln Laboratory ETS, New Mexico MPS 23862
2000 11 19.27746 02 33 41.50 +28 06 06.1 19.8   704 – Lincoln Laboratory ETS, New Mexico MPS 23862
2000 11 19.30875 02 33 39.80 +28 05 58.5 19.5   704 – Lincoln Laboratory ETS, New Mexico MPS 23862
2000 11 30.20098 02 25 52.79 +27 14 40.9 19.0 R 699 – Lowell Observatory-LONEOS MPS 22621
2000 11 30.21901 02 25 52.14 +27 14 34.5   699 – Lowell Observatory-LONEOS MPS 22621
2000 11 30.23705 02 25 51.45 +27 14 29.4   699 – Lowell Observatory-LONEOS MPS 22621
2000 11 30.25140 02 25 50.88 +27 14 25.5 19.2   704 – Lincoln Laboratory ETS, New Mexico MPS 23862
2000 11 30.25509 02 25 50.79 +27 14 24.5   699 – Lowell Observatory-LONEOS MPS 22621
2000 11 30.26817 02 25 50.32 +27 14 19.9 19.7   704 – Lincoln Laboratory ETS, New Mexico MPS 23862
2000 11 30.28316 02 25 49.74 +27 14 16.0 19.6   704 – Lincoln Laboratory ETS, New Mexico MPS 23862
2002 01 12.28738 09 11 47.60 +20 37 39.8 21.0   644 – Palomar Mountain/NEAT MPS 52122
2002 01 12.36041 09 11 44.24 +20 37 48.0 20.2   644 – Palomar Mountain/NEAT MPS 52122
2002 01 12.42665 09 11 41.18 +20 37 55.5 20.6   644 – Palomar Mountain/NEAT MPS 52122
2002 01 21.31427 09 04 30.53 +20 54 31.8 20.2   704 – Lincoln Laboratory ETS, New Mexico MPS 52122
2002 01 21.32919 09 04 29.76 +20 54 34.9 19.7   704 – Lincoln Laboratory ETS, New Mexico MPS 52122
2002 01 21.34416 09 04 28.99 +20 54 36.3 20.1   704 – Lincoln Laboratory ETS, New Mexico MPS 52122
2002 01 21.35946 09 04 28.16 +20 54 37.4 19.6   704 – Lincoln Laboratory ETS, New Mexico MPS 52122
2002 02 03.46380 08 52 48.71 +21 16 06.5 21.0   608 – Haleakala-AMOS MPS 50185
2002 02 03.47411 08 52 48.14 +21 16 07.9 20.5   608 – Haleakala-AMOS MPS 50185
2002 02 03.48504 08 52 47.55 +21 16 08.4 20.7   608 – Haleakala-AMOS MPS 50185
2002 02 04.35176 08 52 01.06 +21 17 17.2 20.4   644 – Palomar Mountain/NEAT MPS 50185
2002 02 04.37284 08 51 59.87 +21 17 18.8 20.4   644 – Palomar Mountain/NEAT MPS 50185
2002 02 04.39400 08 51 58.77 +21 17 20.3 20.2   644 – Palomar Mountain/NEAT MPS 50185
2002 02 10.23590 08 46 51.52 +21 23 49.1 19.7   704 – Lincoln Laboratory ETS, New Mexico MPS 52122
2002 02 10.25004 08 46 50.69 +21 23 49.5 19.8   704 – Lincoln Laboratory ETS, New Mexico MPS 52122
2002 02 10.26709 08 46 49.86 +21 23 50.8 19.9   704 – Lincoln Laboratory ETS, New Mexico MPS 52122
2002 02 10.28131 08 46 49.06 +21 23 51.5 19.8   704 – Lincoln Laboratory ETS, New Mexico MPS 52123
2002 02 10.29738 08 46 48.24 +21 23 52.3 20.1   704 – Lincoln Laboratory ETS, New Mexico MPS 52123
2002 02 12.23666 08 45 09.94 +21 25 30.1 19.6   704 – Lincoln Laboratory ETS, New Mexico MPS 52123
2002 02 12.25090 08 45 09.24 +21 25 30.5 20.3   704 – Lincoln Laboratory ETS, New Mexico MPS 52123
2002 02 12.26513 08 45 08.53 +21 25 31.0 19.8   704 – Lincoln Laboratory ETS, New Mexico MPS 52123
2002 02 12.27959 08 45 07.79 +21 25 31.4 19.8   704 – Lincoln Laboratory ETS, New Mexico MPS 52123
2002 02 12.29382 08 45 07.03 +21 25 32.5 20.2   704 – Lincoln Laboratory ETS, New Mexico MPS 52123
2005 08 25.42469 00 12 31.29 +07 15 31.6 19.2   644 – Palomar Mountain/NEAT MPS 139574
2005 08 25.43621 00 12 30.88 +07 15 32.0 19.2   644 – Palomar Mountain/NEAT MPS 139574
2005 08 25.44766 00 12 30.52 +07 15 32.4 19.3   644 – Palomar Mountain/NEAT MPS 139574
2005 08 29.35744 00 10 18.56 +07 16 34.7 20.1 V 691 – Steward Observatory, Kitt Peak-Spacewatch MPS 140043
2005 08 29.37484 00 10 17.92 +07 16 34.5 19.7 V 691 – Steward Observatory, Kitt Peak-Spacewatch MPS 140043
2005 08 29.39274 00 10 17.22 +07 16 34.8 19.6 V 691 – Steward Observatory, Kitt Peak-Spacewatch MPS 140043
2005 08 30.31746 00 09 43.56 +07 16 30.6 20.0   704 – Lincoln Laboratory ETS, New Mexico MPS 140043
2005 08 30.32849 00 09 43.21 +07 16 29.6 19.9   704 – Lincoln Laboratory ETS, New Mexico MPS 140043
2005 08 30.33963 00 09 42.76 +07 16 30.3 19.7   704 – Lincoln Laboratory ETS, New Mexico MPS 140043
2005 09 09.28734 00 02 49.94 +07 08 27.3 19.3   704 – Lincoln Laboratory ETS, New Mexico MPS 140950
2005 09 09.29850 00 02 49.41 +07 08 29.0 19.9   704 – Lincoln Laboratory ETS, New Mexico MPS 140950
2005 09 09.30970 00 02 48.85 +07 08 27.6 20.3   704 – Lincoln Laboratory ETS, New Mexico MPS 140950
2005 09 09.32091 00 02 48.33 +07 08 26.3 19.6   704 – Lincoln Laboratory ETS, New Mexico MPS 140950
2005 09 09.33205 00 02 47.78 +07 08 25.0 19.6   704 – Lincoln Laboratory ETS, New Mexico MPS 140950
2005 09 12.316347 00 00 29.797 +07 03 36.32 19.27 V 645 – Apache Point-Sloan Digital Sky Survey MPS 390141
2005 09 12.319819 00 00 29.630 +07 03 35.95 20.11   645 – Apache Point-Sloan Digital Sky Survey MPS 390141
2005 09 25.214787 23 50 01.764 +06 33 05.13 19.12 V 645 – Apache Point-Sloan Digital Sky Survey MPS 390141
2005 09 25.218259 23 50 01.585 +06 33 04.51 19.98   645 – Apache Point-Sloan Digital Sky Survey MPS 390141
2005 09 29.17549 23 46 50.28 +06 21 25.4 18.6 R 699 – Lowell Observatory-LONEOS MPS 142481
2005 09 29.19828 23 46 49.11 +06 21 21.0   699 – Lowell Observatory-LONEOS MPS 142481
2005 09 29.22109 23 46 47.90 +06 21 16.5   699 – Lowell Observatory-LONEOS MPS 142481
2005 09 29.24388 23 46 46.85 +06 21 12.2   699 – Lowell Observatory-LONEOS MPS 142481
2005 10 01.20697 23 45 14.14 +06 15 11.8 18.5 V 703 – Catalina Sky Survey MPS 143414
2005 10 01.21413 23 45 13.82 +06 15 10.4 18.8 V 703 – Catalina Sky Survey MPS 143414
2005 10 01.22120 23 45 13.42 +06 15 09.0 18.8 V 703 – Catalina Sky Survey MPS 143414
2005 10 01.22830 23 45 13.14 +06 15 07.9 18.7 V 703 – Catalina Sky Survey MPS 143414
2005 10 07.21175 23 40 44.79 +05 56 24.7 19.1 V 703 – Catalina Sky Survey MPS 143414
2005 10 07.21985 23 40 44.40 +05 56 23.4 19.4 V 703 – Catalina Sky Survey MPS 143414
2005 10 07.22803 23 40 44.07 +05 56 21.3 18.9 V 703 – Catalina Sky Survey MPS 143414
2005 10 07.23602 23 40 43.64 +05 56 19.4 19.3 V 703 – Catalina Sky Survey MPS 143415
2005 10 21.16384 23 32 27.05 +05 15 51.1 19.5 R 644 – Palomar Mountain/NEAT MPS 145820
2005 10 21.18481 23 32 26.46 +05 15 47.7 19.8 R 644 – Palomar Mountain/NEAT MPS 145820
2005 10 21.20741 23 32 25.77 +05 15 44.7 19.1 R 644 – Palomar Mountain/NEAT MPS 145820
2005 10 30.20836 23 29 10.82 +04 56 12.9 19.4 R 699 – Lowell Observatory-LONEOS MPS 147216
2005 10 30.23209 23 29 10.37 +04 56 09.9   699 – Lowell Observatory-LONEOS MPS 147216
2005 10 30.26239 23 29 09.91 +04 56 06.6   699 – Lowell Observatory-LONEOS MPS 147216
2005 10 30.29333 23 29 09.38 +04 56 03.4   699 – Lowell Observatory-LONEOS MPS 147216
2006 12 12.46323 06 32 43.43 +33 27 35.7 19.7 R 644 – Palomar Mountain/NEAT MPS 191808
2006 12 12.48466 06 32 42.26 +33 27 36.5 19.9 R 644 – Palomar Mountain/NEAT MPS 191808
2006 12 12.50627 06 32 41.06 +33 27 36.8 19.6 R 644 – Palomar Mountain/NEAT MPS 191808
2008 02 08.37523 11 24 33.12 +00 48 21.9 20.7 V 703 – Catalina Sky Survey MPS 236129
2008 02 08.38398 11 24 32.86 +00 48 23.4 20.1 V 703 – Catalina Sky Survey MPS 236129
2008 02 08.39270 11 24 32.61 +00 48 23.1 20.4 V 703 – Catalina Sky Survey MPS 236129
